TimeEDT,TemperatureF,Dew PointF,Humidity,Sea Level PressureIn,VisibilityMPH,Wind Direction,Wind SpeedMPH,Gust SpeedMPH,PrecipitationIn,Events,Conditions,WindDirDegrees,DateUTC
12:15 AM,66.2,66.2,100,30.19,10.0,South,5.8,-,N/A,,Clear,170,2013-07-03 04:15:00
12:35 AM,66.2,66.2,100,30.18,10.0,South,3.5,-,N/A,,Clear,180,2013-07-03 04:35:00
12:55 AM,66.2,66.2,100,30.19,10.0,Calm,Calm,-,N/A,,Clear,0,2013-07-03 04:55:00
1:15 AM,64.4,64.4,100,30.19,10.0,South,4.6,-,N/A,,Mostly Cloudy,180,2013-07-03 05:15:00
1:35 AM,66.2,66.2,100,30.19,10.0,South,3.5,-,N/A,,Mostly Cloudy,170,2013-07-03 05:35:00
1:55 AM,66.2,66.2,100,30.18,10.0,Calm,Calm,-,N/A,,Mostly Cloudy,0,2013-07-03 05:55:00
2:15 AM,66.2,66.2,100,30.18,10.0,Calm,Calm,-,N/A,,Mostly Cloudy,0,2013-07-03 06:15:00
2:35 AM,66.2,66.2,100,30.17,10.0,ESE,3.5,-,N/A,,Scattered Clouds,120,2013-07-03 06:35:00
2:55 AM,66.2,66.2,100,30.18,10.0,Calm,Calm,-,N/A,,Clear,0,2013-07-03 06:55:00
3:15 AM,64.4,64.4,100,30.18,10.0,Calm,Calm,-,N/A,,Clear,0,2013-07-03 07:15:00
3:35 AM,64.4,64.4,100,30.18,10.0,SE,4.6,-,N/A,,Clear,140,2013-07-03 07:35:00
3:55 AM,66.2,66.2,100,30.19,10.0,Calm,Calm,-,N/A,,Clear,0,2013-07-03 07:55:00
4:15 AM,66.2,66.2,100,30.20,10.0,Calm,Calm,-,N/A,,Scattered Clouds,0,2013-07-03 08:15:00
4:35 AM,64.4,64.4,100,30.19,10.0,Calm,Calm,-,N/A,,Scattered Clouds,0,2013-07-03 08:35:00
4:55 AM,64.4,64.4,100,30.20,10.0,Calm,Calm,-,N/A,,Clear,0,2013-07-03 08:55:00
5:15 AM,64.4,64.4,100,30.20,10.0,Calm,Calm,-,N/A,,Clear,0,2013-07-03 09:15:00
5:35 AM,64.4,64.4,100,30.21,10.0,NNE,3.5,-,N/A,,Mostly Cloudy,30,2013-07-03 09:35:00
5:55 AM,64.4,64.4,100,30.21,10.0,Calm,Calm,-,N/A,,Scattered Clouds,0,2013-07-03 09:55:00
6:15 AM,64.4,64.4,100,30.21,10.0,Calm,Calm,-,N/A,,Mostly Cloudy,0,2013-07-03 10:15:00
6:35 AM,66.2,66.2,100,30.22,10.0,Calm,Calm,-,N/A,,Overcast,0,2013-07-03 10:35:00
6:55 AM,66.2,66.2,100,30.22,10.0,Calm,Calm,-,N/A,,Overcast,0,2013-07-03 10:55:00
7:15 AM,66.2,66.2,100,30.23,10.0,East,3.5,-,N/A,,Mostly Cloudy,100,2013-07-03 11:15:00
7:35 AM,68.0,66.2,94,30.23,10.0,ESE,3.5,-,N/A,,Clear,120,2013-07-03 11:35:00
7:55 AM,68.0,68.0,100,30.24,10.0,Calm,Calm,-,N/A,,Clear,0,2013-07-03 11:55:00
8:15 AM,68.0,68.0,100,30.24,10.0,Calm,Calm,-,N/A,,Clear,0,2013-07-03 12:15:00
8:35 AM,68.0,68.0,100,30.25,10.0,SSE,3.5,-,N/A,,Clear,160,2013-07-03 12:35:00
8:55 AM,69.8,68.0,94,30.26,10.0,SSE,3.5,-,0.01,,Clear,160,2013-07-03 12:55:00
9:15 AM,69.8,68.0,94,30.27,10.0,SSE,3.5,-,N/A,,Clear,160,2013-07-03 13:15:00
9:35 AM,71.6,68.0,88,30.28,10.0,Calm,Calm,-,N/A,,Scattered Clouds,0,2013-07-03 13:35:00
9:55 AM,71.6,68.0,88,30.27,10.0,ESE,4.6,-,N/A,,Scattered Clouds,120,2013-07-03 13:55:00
10:15 AM,71.6,68.0,88,30.27,10.0,SSE,5.8,-,N/A,,Mostly Cloudy,150,2013-07-03 14:15:00
10:35 AM,71.6,68.0,88,30.27,10.0,South,5.8,-,N/A,,Overcast,170,2013-07-03 14:35:00
10:55 AM,73.4,69.8,88,30.28,10.0,SE,3.5,-,N/A,,Overcast,140,2013-07-03 14:55:00
11:15 AM,73.4,69.8,88,30.28,10.0,Calm,Calm,-,N/A,,Overcast,0,2013-07-03 15:15:00
11:35 AM,73.4,69.8,88,30.28,10.0,SSE,4.6,-,N/A,,Overcast,160,2013-07-03 15:35:00
11:55 AM,71.6,69.8,94,30.28,10.0,SSE,4.6,-,N/A,,Overcast,150,2013-07-03 15:55:00
12:15 PM,71.6,66.2,83,30.28,10.0,SSE,5.8,-,N/A,,Overcast,160,2013-07-03 16:15:00
12:35 PM,69.8,66.2,88,30.28,10.0,SSE,8.1,-,N/A,Rain,Rain,160,2013-07-03 16:35:00
12:55 PM,69.8,69.8,100,30.28,10.0,South,9.2,-,N/A,Rain,Light Rain,170,2013-07-03 16:55:00
1:15 PM,68.0,68.0,100,30.28,10.0,SE,4.6,-,0.01,Rain,Rain,140,2013-07-03 17:15:00
1:35 PM,69.8,69.8,100,30.28,10.0,SE,6.9,-,0.02,Rain,Light Rain,140,2013-07-03 17:35:00
1:55 PM,68.0,68.0,100,30.27,10.0,SSE,5.8,-,0.02,Rain,Light Rain,150,2013-07-03 17:55:00
2:15 PM,69.8,69.8,100,30.27,10.0,SSE,6.9,-,N/A,Rain,Light Rain,160,2013-07-03 18:15:00
2:35 PM,69.8,69.8,100,30.26,10.0,South,3.5,-,N/A,,Overcast,170,2013-07-03 18:35:00
2:55 PM,71.6,71.6,100,30.26,10.0,South,3.5,-,N/A,,Overcast,170,2013-07-03 18:55:00
3:15 PM,71.6,69.8,94,30.24,10.0,South,5.8,-,0.01,,Overcast,170,2013-07-03 19:15:00
3:35 PM,71.6,69.8,94,30.24,10.0,South,4.6,-,0.01,,Overcast,180,2013-07-03 19:35:00
3:55 PM,69.8,69.8,100,30.25,10.0,South,3.5,-,0.01,Rain,Light Rain,180,2013-07-03 19:55:00
4:15 PM,68.0,68.0,100,30.25,7.0,SSE,4.6,-,0.04,Rain,Rain,150,2013-07-03 20:15:00
4:35 PM,68.0,68.0,100,30.24,7.0,SSE,5.8,-,0.09,Rain,Rain,150,2013-07-03 20:35:00
4:55 PM,68.0,68.0,100,30.25,10.0,South,6.9,-,0.10,Rain,Light Rain,170,2013-07-03 20:55:00
5:15 PM,68.0,68.0,100,30.26,7.0,SSE,8.1,-,0.04,Rain,Light Rain,160,2013-07-03 21:15:00
5:35 PM,68.0,68.0,100,30.25,10.0,SSE,5.8,-,0.05,Rain,Light Rain,160,2013-07-03 21:35:00
5:55 PM,68.0,68.0,100,30.25,10.0,SE,3.5,-,0.05,Rain,Light Rain,140,2013-07-03 21:55:00
6:15 PM,68.0,68.0,100,30.25,10.0,South,5.8,-,0.02,Rain,Rain,170,2013-07-03 22:15:00
6:35 PM,68.0,68.0,100,30.27,10.0,South,6.9,-,0.03,Rain,Light Rain,170,2013-07-03 22:35:00
6:55 PM,66.2,66.2,100,30.27,10.0,SSE,5.8,-,0.05,Rain,Rain,160,2013-07-03 22:55:00
7:15 PM,66.2,66.2,100,30.28,10.0,SSE,8.1,-,0.02,Rain,Light Rain,160,2013-07-03 23:15:00
7:35 PM,64.4,64.4,100,30.28,10.0,SSE,6.9,-,0.04,Rain,Light Rain,160,2013-07-03 23:35:00
7:55 PM,64.4,64.4,100,30.28,10.0,SSE,5.8,-,0.07,Rain,Light Rain,160,2013-07-03 23:55:00
8:15 PM,64.4,64.4,100,30.28,10.0,SSE,5.8,-,0.01,Rain,Rain,160,2013-07-04 00:15:00
8:35 PM,64.4,64.4,100,30.28,10.0,SSE,9.2,-,0.02,Rain,Rain,160,2013-07-04 00:35:00
8:55 PM,64.4,64.4,100,30.28,4.0,SSE,6.9,-,0.02,,Overcast,160,2013-07-04 00:55:00
9:15 PM,64.4,64.4,100,30.27,10.0,SSE,6.9,-,N/A,,Overcast,150,2013-07-04 01:15:00
9:35 PM,64.4,64.4,100,30.27,10.0,SSE,8.1,-,N/A,,Overcast,160,2013-07-04 01:35:00
9:55 PM,64.4,64.4,100,30.28,10.0,South,5.8,-,N/A,,Overcast,180,2013-07-04 01:55:00
10:15 PM,64.4,64.4,100,30.27,10.0,SSE,5.8,-,N/A,,Drizzle,150,2013-07-04 02:15:00
10:35 PM,64.4,64.4,100,30.25,10.0,Calm,Calm,-,N/A,,Light Drizzle,0,2013-07-04 02:35:00
10:55 PM,62.6,62.6,100,30.25,10.0,South,5.8,-,N/A,,Clear,180,2013-07-04 02:55:00
11:15 PM,62.6,62.6,100,30.25,10.0,South,4.6,-,N/A,,Clear,180,2013-07-04 03:15:00
11:35 PM,62.6,62.6,100,30.25,10.0,South,4.6,-,N/A,,Clear,170,2013-07-04 03:35:00
11:55 PM,62.6,62.6,100,30.25,10.0,SSE,6.9,-,N/A,,Clear,160,2013-07-04 03:55:00